User: anonymous   Login
Location: Unspecified
(0.0000°N, 0.0000°E)
Time: 22:33:58
(UTC+02:00)
Language:

ATLAS 3B CENTAUR R/B - Orbit

View from above orbital plane
View from above orbital plane
View from above satellite
View from above satellite

Ground track
Ground track

The orbit data is extracted from the following two-line orbital elements,

1 28118U 03057B   17142.45785737 +.00061042 +00000-0 +89085-3 0  9992
2 28118 028.1109 198.5379 3077952 148.4182 234.4636 09.32203577287278
Epoch (UTC): 22 May 2017 10:59:18
Eccentricity: 0.3077952
inclination: 28.1109°
perigee height: 223 km
apogee height: 6094 km
right ascension of ascending node: 198.5379°
argument of perigee: 148.4182°
revolutions per day: 9.32203577
mean anomaly at epoch: 234.4636°
orbit number at epoch: 28727

The dashed part of the orbit path shows where the satellite is in the earth's shadow,  

DLR